Regional Weather Roundup
Issued by NWS Grand Forks, ND

Home | Current Version | Previous Version | Text Only | Print | Product List | Glossary Off
Versions: 1 2 3 4 5 6 7 8 9 10 11 12 13 14 15 16 17 18 19 20 21 22 23 24 25 26 27 28 29 30 31 32 33 34 35 36 37 38 39 40 41 42 43 44 45 46 47 48 49 50

000
ASUS43 KFGF 250210
RWRFGF
PRAIRIE TO PINES  WEATHER ROUNDUP
NATIONAL WEATHER SERVICE EASTERN NORTH DAKOTA/GRAND FORKS ND
800 PM CST SAT FEB 24 2018

 **SATELLITE DATA USED TO AUGMENT SKY COVER AT AUTOMATED STATIONS**
 *****  WEATHER ACROSS EASTERN NORTH DAKOTA  *****

CITY           SKY/WX    TMP DP  RH WIND       PRES   REMARKS
GRAND FORKS    LGT SNOW  17  14  88 NE3       29.68F VSB 1
GRAND FRKS AFB LGT SNOW  16  12  86 E3        29.66F FOG
GRAND FRKS NWS   N/A     15  14  97 VRB2      29.65F
DEVILS LAKE    FLURRIES  18  14  86 S7        29.61S WCI   8
FARGO          LGT SNOW  18  16  92 N7        29.64F VSB 1   WCI   9
WAHPETON ARPT  CLOUDY    19  18  93 N7        29.63F WCI  10
$$

 ***** WEATHER ACROSS CENTRAL AND WESTERN NORTH DAKOTA  *****

CITY           SKY/WX    TMP DP  RH WIND       PRES   REMARKS
BISMARCK       FAIR      12   8  84 SW5       29.63F WCI   4
MINOT          MOCLDY    17  10  74 SW9       29.56F WCI   6
JAMESTOWN      LGT SNOW  15  13  91 S3        29.61F FOG
MINOT AFB      MOCLDY    11   6  81 W6          N/A  WCI   1
GARRISON         N/A     10   7  87 W3        29.57F
WILLISTON      CLOUDY    20  15  81 W8        29.59S WCI  10
DICKINSON      MOCLDY    15   7  70 W9        29.57S WCI   3
HETTINGER      FAIR       9   3  77 W7        29.63S WCI  -2
$$

 *****  OTHER AIRPORT OBSERVATIONS IN OUR AREA  *****

CITY           SKY/WX    TMP DP  RH WIND       PRES   REMARKS
WALHALLA       LGT SNOW  18  18 100 SE6       29.65F WCI   9
GRAFTON AIRPOR CLOUDY    16  14  93 SE8       29.70F FOG     WCI   5
VALLEY CITY AR LGT SNOW  16  16 100 CALM      29.64F
CANDO          FLURRIES  19  19 100 SW6       29.61F WCI  11
CAVALIER APRT  LGT SNOW  16  16 100 SE7       29.67F WCI   6
GWINNER          N/A     16  14  93 NW5       29.63F FOG     WCI   9
SHEYENNE NWR     N/A     16  16  99 N5        29.95S WCI   9
ROLLA          CLOUDY    18  18 100 SW13      29.55F WCI   4
 ***** THE ABOVE OBSERVATIONS ARE NON NWS ARE NOT QUALITY
       CONTROLLED AND MAY MIS-REPORT RAIN FOR SNOW...
$$

  *****  WEATHER ACROSS NORTHERN MINNESOTA  *****

CITY           SKY/WX    TMP DP  RH WIND       PRES   REMARKS
FLAG ISLAND    CLOUDY    21   9  58 CALM      29.68F
WARROAD        FAIR      21  12  68 E5        29.69F WCI  15
ROSEAU         MOCLDY    21  12  68 CALM      29.69F
HALLOCK        LGT SNOW  18  16  93 SE6       29.70F WCI   9
THF RVR FALLS  LGT SNOW  19  16  88 E7        29.67F FOG     WCI  10
BAUDETTE       CLOUDY    22  11  62 E6        29.65F WCI  14
WASKISH        LGT SNOW  21  18  86 E12       29.65F VSB 1   WCI   9
CROOKSTON      LGT SNOW  19  19 100 E7        29.67F WCI  10
STEPHEN NDAWN    N/A     16  12  86 CALM        N/A
GREENBUSH NDAW   N/A     18  16  93 E1          N/A
$$
  *****  WEATHER ACROSS CENTRAL AND WEST MINNESOTA  *****

CITY           SKY/WX    TMP DP  RH WIND       PRES   REMARKS
FOSSTON        LGT SNOW  18  12  79 NE6       29.64F VSB 3/4 WCI   9
BEMIDJI        LGT SNOW  19  17  93 E7        29.62F WCI   9
PARK RAPIDS    LGT SNOW  20  16  84 NE7       29.59F VSB 3/4 WCI  11
ELBOW LAKE     LGT SNOW  20  19  96 NE3       29.59F
WADENA         LGT SNOW  19  18  93 NE6       29.58F WCI  11
DETROIT LAKES  LGT SNOW  21  21 100 E5        29.61F WCI  15
MOORHEAD       LGT SNOW  19  18  93 N6        29.65F WCI  11
FERGUS FALLS   LGT SNOW  19  18  93 CALM      29.60F
MORRIS MN      LGT SNOW  19  19 100 CALM      29.57F
STAPLES        LGT SNOW  19  19 100 N5        29.58F WCI  13
$$
  *****  WEATHER ELSEWHERE ACROSS MINNESOTA  *****

CITY           SKY/WX    TMP DP  RH WIND       PRES   REMARKS
DULUTH         SNOW      24  21  88 E24G31    29.57F VSB 1/4 WCI   8
INTRNTL FALLS  CLOUDY    25  14  63 NE7       29.68F WCI  17
ELY            LGT SNOW  23  18  80 E7        29.68F WCI  15
CLOQUET        SNOW      25  21  86 E14G26    29.58F VSB 1/2 WCI  13
WHEATON        LGT SNOW  18  16  93 W6        29.63F WCI   9
BRAINERD       SNOW      24  21  88 E7        29.57F VSB 1/2 WCI  16
HIBBING        LGT SNOW  23  21  92 E14       29.58F VSB 1   WCI  11
ALEXANDRIA     LGT SNOW  21  19  92 W5        29.57F VSB 3/4 WCI  15
SAINT CLOUD    SNOW      26  25  96 E7        29.54F VSB 1/2 WCI  18
MINNEAPOLIS    SNOW      29  29 100 E6        29.56F VSB 1/2 WCI  23
$$

  *****  WEATHER ACROSS SOUTH DAKOTA  *****

CITY           SKY/WX    TMP DP  RH WIND       PRES   REMARKS
SIOUX FALLS    CLOUDY    18  14  84 W17G24    29.65R WCI   3
BROOKINGS      FLURRIES  16  14  92 W17       29.60R WCI   0
WATERTOWN      CLOUDY    14  11  87 W10       29.57F WCI   1
HURON          CLOUDY     9   7  92 W14       29.67F WCI  -7
SISSETON         N/A     15  12  88 NW12      29.61F WCI   2
ABERDEEN       LGT SNOW  16  14  92 NW6       29.66F FOG     WCI   7
MITCHELL       FAIR      11   8  88 W9        29.70S WCI  -2
PIERRE         FAIR      13   8  81 W13       29.69S WCI  -2
MOBRIDGE       FAIR       5   2  87 CALM      29.62F
RAPID CITY     FAIR      16   9  74 SW6       29.71R WCI   7
$$

  *****  SOME WEATHER IN NEARBY STATES *****

CITY           SKY/WX    TMP DP  RH WIND       PRES   REMARKS
GLASGOW MT     LGT SNOW  22  19  89 W12       29.65S FOG     WCI  10
GREAT FALLS MT FAIR      20   9  62 W8        29.70R WCI  10
CHEYENNE WY    FAIR      21   2  43 W18G25    29.76R WCI   6
SCOTTSBLUFF NE FAIR      26  12  55 W13       29.79R WCI  15
OMAHA NE       FAIR      28  24  85 S3        29.74S
DES MOINES IA  CLOUDY    33  29  85 W20G29    29.67R WCI  21
DAVENPORT IA   LGT RAIN  43  41  93 SE12      29.54F VSB 1
CHICAGO IL     LGT RAIN  44  41  89 SE17      29.61F
EAU CLAIRE WI  LGT SNOW  31  29  92 SE12      29.53F VSB 3/4 WCI  22
LA CROSSE WI   LGT SNOW  34  32  92 SE6       29.54F FOG
$$

  *****  SOME NATIONAL WEATHER *****

CITY           SKY/WX    TMP DP  RH WIND       PRES   REMARKS
LA GUARDIA NY  LGT RAIN  45  42  89 NE8       30.21R FOG
RALEIGH NC     MOCLDY    69  58  67 SW8       30.09R
ATLANTA GA     FAIR      73  59  61 S8        30.05S
NEW ORLEANS LA FAIR      74  71  91 S6        30.03R
OKLAHOMA CITY  FAIR      42  33  70 N9        29.96R
ALBUQUERQUE NM FAIR      39   8  27 W10       30.01R
SALT LAKE CITY CLOUDY    30  14  51 S20       29.97S WCI  17
LOS ANGELES CA FAIR      55  38  52 W18       30.20S
BOISE ID       FAIR      28  23  81 NW8       30.01R WCI  20
SEATTLE WA     MOCLDY    42  30  62 SE10      30.12F
$$

*** WEATHER ACROSS MANITOBA...SASKATCHEWAN AND ONTARIO ***
                ***ONTARIO***

CITY           SKY/WX    TMP DP  RH WIND       PRES   REMARKS
GERALDTON      MOCLDY    19  14  79 SE5       29.91F WCI  13
THUNDER BAY    CLOUDY    19  16  86 NE13      29.85F WCI   7
SIOUX LOOKOUT  CLOUDY    25  10  54 SE5       29.75F WCI  19
TORONTO        CLOUDY    34  25  69 E9        30.12F
BIG TROUT LK   CLEAR     21   9  58 S10       29.64F WCI  10
PICKLE LAKE    MOCLDY    23   7  50 S10       29.76F WCI  12
DRYDEN         CLOUDY    25  10  54 E3        29.72F
KENORA         CLOUDY    23   9  54 SE8       29.69F WCI  14
$$
                *** MANITOBA***

CITY           SKY/WX    TMP DP  RH WIND       PRES   REMARKS
BRANDON        LGT SNOW  14  12  92 SW5       29.57F WCI   6
DAUPHIN        CLEAR     18  10  73 W9        29.54F WCI   6
ISLAND LAKE    PTCLDY    25   9  50 SW9       29.57S WCI  15
PILOT MOUND      N/A     18  16  93 S13         N/A  WCI   4
THE PAS        FLURRIES  18  10  73 SW2       29.52R
THOMPSON       FLURRIES  16  10  79 S3        29.51S
WINNIPEG       FLURRIES  18  10  73 S16       29.67F WCI   3
LYNN LAKE      CLOUDY    14  10  85 N8        29.51R WCI   3
CHURCHILL      FLURRIES   3  -2  78 NW12      29.54R WCI -13
GILLAM         LGT SNOW  16  12  86 SW6       29.53S WCI   7
$$
                ***SASKATCHEWAN***

CITY           SKY/WX    TMP DP  RH WIND       PRES   REMARKS
ESTEVAN        FLURRIES  14  12  92 SW9       29.53F WCI   2
KINDERSLEY     CLOUDY    21  16  79 NW8       29.59R WCI  12
LLOYDMINSTER   PTCLDY    16  10  79 NW7       29.56S WCI   6
PRINCE ALBERT  FLURRIES  27  18  69 NW10      29.54R WCI  17
REGINA         MOCLDY    18  16  93 W9        29.53R WCI   6
YORKTON        CLOUDY    18  14  86 SW8       29.50F WCI   7
N. BATTLEFORD  CLOUDY    25  18  74 NW12      29.58R WCI  14
LA RONGE       LGT SNOW  19  16  86 W10       29.54R WCI   8
SASKATOON      FLURRIES  25  18  74 W14       29.55R WCI  13
SWIFT CURRENT  NOT AVBL
$$
NOTE: THESE ARE AUTOMATED STATIONS WITH LIMITED QUALITY CONTROL
      "FAIR" INDICATES FEW OR NO CLOUDS BELOW 12,000 FEET WITH NO
      SIGNIFICANT WEATHER AND/OR OBSTRUCTIONS TO VISIBILITY.
      SKY/WX - SKY CONDITION AND SIGNIFICANT WEATHER.
      TMP - AIR TEMPERATURE.    DP   - DEWPOINT TEMPERATURE.
      RH  - RELATIVE HUMIDITY.  PRES - PRESSURE.
      HX  - HEAT INDEX.         WCI  - WIND CHILL INDEX.
$




USA.gov is the U.S. government's official web portal to all federal, state and local government web resources and services.